QPF
0.03 0.04 0.05 0.05 0.04 0.04 0.03 0.03 0.03 0.01 0.02 0.04 0.06 0.06 0.04 0.04 0.05 0.05 0.06 0.05 0.04 0.05 0.07 0.07 0.05 0.06 0.06 0.05 0.05 0.07 0.06 0.05 0.05 0.06 0.04 0.03 0.02 0.01 0.02 0.02 0.02 0.02 0.02
0.03 0.03 0.04 0.05 0.04 0.04 0.05 0.05 0.03 0.01 0.01 0.01 0.03 0.05 0.04 0.05 0.05 0.04 0.04 0.04 0.03 0.04 0.06 0.07 0.06 0.06 0.06 0.07 0.07 0.08 0.07 0.06 0.04 0.04 0.03 0.01 0.01 0.01 0.02 0.03 0.03 0.03 0.03
0.01 0.02 0.03 0.03 0.04 0.05 0.05 0.05 0.02 0.01 0.01 0.01 0.02 0.03 0.02 0.03 0.03 0.02 0.02 0.04 0.04 0.04 0.05 0.06 0.06 0.07 0.08 0.07 0.08 0.07 0.06 0.03 0.02 0.02 0.02 0.02 0.01 0.02 0.03 0.04 0.04 0.04 0.03
0.02 0.01 0.03 0.03 0.03 0.04 0.03 0.03 0.02 0.02 0.02 0.02 0.02 0.02 0.02 0.02 0.03 0.02 0.02 0.03 0.05 0.04 0.02 0.02 0.03 0.05 0.06 0.06 0.07 0.07 0.05 0.04 0.03 0.03 0.03 0.02 0.02 0.04 0.04 0.05 0.06 0.06 0.05
0.03 0.03 0.03 0.03 0.02 0.03 0.03 0.02 0.02 0.02 0.02 0.01 0.01 0.01 0.01 0.02 0.03 0.04 0.04 0.04 0.04 0.04 0.03 0.01 0.02 0.03 0.06 0.06 0.06 0.05 0.04 0.04 0.04 0.04 0.03 0.02 0.04 0.06 0.07 0.07 0.08 0.07 0.06
0.03 0.03 0.03 0.03 0.03 0.03 0.03 0.02 0.01 0.01 0.01 0.01 0.01 0.01 0.02 0.02 0.03 0.04 0.05 0.05 0.05 0.06 0.05 0.03 0.02 0.02 0.05 0.06 0.07 0.07 0.06 0.05 0.05 0.05 0.04 0.04 0.06 0.08 0.10 0.08 0.08 0.06 0.05
0.03 0.03 0.03 0.03 0.04 0.04 0.03 0.03 0.02 0.01 0.01 0.01 0.01 0.03 0.02 0.02 0.03 0.03 0.02 0.04 0.05 0.05 0.05 0.04 0.04 0.04 0.05 0.05 0.06 0.08 0.09 0.07 0.07 0.06 0.06 0.06 0.07 0.06 0.07 0.06 0.04 0.04 0.04
0.02 0.03 0.04 0.04 0.04 0.04 0.05 0.04 0.04 0.03 0.02 0.01 0.02 0.04 0.04 0.04 0.04 0.02 0.01 0.02 0.04 0.04 0.04 0.04 0.05 0.06 0.12 0.10 0.05 0.05 0.06 0.07 0.07 0.07 0.08 0.08 0.06 0.06 0.06 0.04 0.03 0.02 0.02
0.03 0.04 0.04 0.03 0.03 0.03 0.04 0.04 0.05 0.06 0.05 0.03 0.03 0.03 0.04 0.04 0.04 0.04 0.02 0.02 0.02 0.03 0.04 0.04 0.05 0.07 0.14 0.14 0.07 0.04 0.04 0.07 0.12 0.11 0.09 0.08 0.05 0.04 0.04 0.03 0.03 0.02 0.02
0.05 0.04 0.04 0.04 0.03 0.03 0.02 0.01 0.03 0.04 0.05 0.05 0.05 0.04 0.03 0.03 0.04 0.04 0.03 0.01 0.01 0.02 0.02 0.02 0.03 0.05 0.10 0.13 0.09 0.05 0.05 0.08 0.14 0.14 0.11 0.08 0.05 0.03 0.03 0.03 0.02 0.02 0.02
0.05 0.04 0.04 0.04 0.03 0.02 0.02 0.02 0.01 0.02 0.03 0.04 0.05 0.04 0.03 0.03 0.03 0.03 0.03 0.02 0.01 0.01 0.01 0.02 0.02 0.03 0.08 0.10 0.07 0.05 0.04 0.05 0.07 0.10 0.09 0.06 0.04 0.03 0.03 0.02 0.02 0.02 0.02
0.03 0.03 0.02 0.03 0.03 0.02 0.02 0.02 0.01 0.01 0.02 0.03 0.04 0.04 0.03 0.03 0.02 0.03 0.02 0.02 0.02 0.01 0.00 0.01 0.01 0.01 0.03 0.06 0.07 0.07 0.04 0.03 0.02 0.03 0.03 0.02 0.02 0.02 0.01 0.02 0.02 0.03 0.03
0.02 0.02 0.01 0.02 0.02 0.01 0.01 0.01 0.02 0.02 0.01 0.02 0.04 0.04 0.04 0.03 0.03 0.03 0.03 0.02 0.01 0.01 0.01 0.00 0.00 0.00 0.01 0.02 0.03 0.04 0.04 0.03 0.03 0.02 0.02 0.02 0.01 0.01 0.01 0.01 0.01 0.03 0.03
0.00 0.00 0.00 0.01 0.01 0.01 0.00 0.01 0.02 0.02 0.01 0.02 0.02 0.04 0.05 0.04 0.03 0.03 0.03 0.03 0.03 0.02 0.01 0.00 0.00 0.00 0.00 0.01 0.01 0.01 0.01 0.01 0.01 0.01 0.01 0.01 0.01 0.01 0.01 0.00 0.01 0.01 0.02
0.00 0.01 0.01 0.00 0.00 0.01 0.01 0.01 0.01 0.01 0.02 0.02 0.02 0.03 0.03 0.04 0.03 0.02 0.02 0.03 0.04 0.04 0.03 0.01 0.01 0.00 0.00 0.00 0.00 0.00 0.00 0.01 0.01 0.00 0.00 0.01 0.01 0.01 0.01 0.00 0.00 0.00 0.01
0.01 0.00 0.00 0.00 0.00 0.00 0.01 0.01 0.02 0.03 0.02 0.01 0.01 0.02 0.03 0.02 0.02 0.02 0.02 0.03 0.03 0.04 0.03 0.01 0.01 0.00 0.00 0.00 0.00 0.00 0.00 0.00 0.00 0.00 0.01 0.01 0.02 0.02 0.02 0.01 0.01 0.00 0.01
0.00 0.00 0.00 0.00 0.00 0.00 0.01 0.01 0.01 0.02 0.02 0.02 0.01 0.01 0.02 0.01 0.02 0.02 0.02 0.02 0.02 0.02 0.02 0.01 0.01 0.01 0.00 0.00 0.00 0.00 0.00 0.00 0.00 0.00 0.01 0.01 0.02 0.02 0.01 0.01 0.01 0.01 0.01
0.00 0.00 0.00 0.00 0.00 0.00 0.01 0.00 0.00 0.00 0.01 0.01 0.01 0.01 0.01 0.01 0.03 0.03 0.03 0.02 0.01 0.02 0.01 0.01 0.02 0.02 0.02 0.01 0.01 0.00 0.00 0.00 0.00 0.00 0.00 0.01 0.01 0.02 0.02 0.01 0.01 0.00 0.00
0.00 0.00 0.00 0.00 0.01 0.00 0.01 0.00 0.00 0.00 0.00 0.00 0.00 0.01 0.00 0.01 0.02 0.02 0.02 0.02 0.02 0.02 0.02 0.02 0.03 0.02 0.01 0.01 0.00 0.00 0.00 0.00 0.00 0.00 0.00 0.00 0.00 0.00 0.00 0.01 0.01 0.00 0.00
0.01 0.01 0.01 0.01 0.01 0.00 0.01 0.01 0.00 0.00 0.00 0.00 0.00 0.00 0.00 0.01 0.01 0.02 0.02 0.02 0.03 0.03 0.03 0.03 0.02 0.02 0.02 0.01 0.00 0.00 0.00 0.00 0.00 0.00 0.00 0.00 0.00 0.00 0.00 0.00 0.00 0.00 0.00
0.01 0.01 0.01 0.01 0.01 0.01 0.00 0.00 0.00 0.00 0.00 0.00 0.00 0.00 0.00 0.01 0.01 0.01 0.01 0.02 0.02 0.02 0.02 0.02 0.02 0.01 0.01 0.01 0.01 0.00 0.00 0.00 0.00 0.00 0.00 0.00 0.00 0.00 0.00 0.00 0.01 0.01 0.01
0.01 0.00 0.00 0.00 0.00 0.00 0.01 0.01 0.01 0.01 0.01 0.00 0.00 0.00 0.01 0.01 0.01 0.01 0.01 0.01 0.02 0.01 0.02 0.02 0.02 0.02 0.01 0.01 0.01 0.01 0.00 0.00 0.00 0.00 0.00 0.00 0.00 0.00 0.00 0.00 0.00 0.01 0.01
0.00 0.00 0.00 0.00 0.00 0.01 0.02 0.02 0.01 0.01 0.01 0.01 0.00 0.00 0.01 0.01 0.01 0.00 0.00 0.01 0.00 0.01 0.01 0.01 0.01 0.02 0.02 0.01 0.01 0.01 0.01 0.00 0.00 0.00 0.00 0.00 0.00 0.00 0.00 0.00 0.00 0.00 0.01
0.00 0.00 0.00 0.00 0.01 0.01 0.02 0.02 0.01 0.01 0.00 0.00 0.00 0.00 0.01 0.01 0.01 0.01 0.01 0.01 0.00 0.00 0.00 0.00 0.01 0.01 0.02 0.02 0.02 0.02 0.02 0.01 0.00 0.00 0.00 0.00 0.00 0.00 0.00 0.00 0.00 0.00 0.00
0.00 0.00 0.00 0.01 0.02 0.01 0.01 0.02 0.02 0.01 0.01 0.01 0.01 0.01 0.01 0.01 0.01 0.02 0.02 0.02 0.01 0.01 0.01 0.01 0.01 0.01 0.01 0.02 0.02 0.02 0.03 0.02 0.01 0.01 0.00 0.00 0.00 0.00 0.00 0.00 0.00 0.00 0.00
0.00 0.00 0.00 0.01 0.01 0.01 0.01 0.02 0.02 0.01 0.01 0.01 0.01 0.01 0.02 0.03 0.03 0.03 0.03 0.02 0.02 0.02 0.01 0.02 0.02 0.02 0.01 0.02 0.01 0.01 0.02 0.02 0.01 0.01 0.00 0.00 0.00 0.00 0.00 0.00 0.00 0.00 0.00
MSLP
1010.65 1010.71 1010.79 1010.90 1011.07 1011.33 1011.65 1012.03 1012.42 1012.78 1013.06 1013.25 1013.36 1013.42 1013.47 1013.54 1013.69 1013.91 1014.18 1014.48 1014.76 1014.98 1015.14 1015.23 1015.28 1015.31 1015.36 1015.43 1015.51 1015.58 1015.61 1015.58 1015.46 1015.28 1015.07 1014.85 1014.67 1014.54 1014.42 1014.30 1014.11 1013.82 1013.41
1011.01 1011.05 1011.13 1011.25 1011.45 1011.75 1012.12 1012.55 1012.98 1013.38 1013.70 1013.93 1014.08 1014.18 1014.26 1014.37 1014.52 1014.72 1014.95 1015.17 1015.37 1015.50 1015.57 1015.58 1015.56 1015.54 1015.54 1015.57 1015.62 1015.67 1015.68 1015.64 1015.53 1015.38 1015.20 1015.04 1014.90 1014.80 1014.71 1014.58 1014.36 1014.02 1013.56
1011.33 1011.36 1011.44 1011.59 1011.83 1012.17 1012.59 1013.07 1013.55 1014.00 1014.38 1014.67 1014.88 1015.03 1015.17 1015.30 1015.45 1015.62 1015.80 1015.94 1016.03 1016.05 1016.01 1015.93 1015.83 1015.75 1015.70 1015.69 1015.71 1015.73 1015.72 1015.66 1015.56 1015.43 1015.29 1015.17 1015.09 1015.03 1014.96 1014.84 1014.61 1014.25 1013.76
1011.60 1011.63 1011.72 1011.90 1012.18 1012.57 1013.05 1013.57 1014.10 1014.60 1015.03 1015.38 1015.66 1015.87 1016.06 1016.23 1016.39 1016.53 1016.64 1016.70 1016.68 1016.59 1016.44 1016.26 1016.08 1015.94 1015.84 1015.80 1015.78 1015.77 1015.74 1015.67 1015.57 1015.45 1015.33 1015.25 1015.21 1015.19 1015.16 1015.05 1014.83 1014.47 1013.97
1011.83 1011.88 1011.99 1012.21 1012.53 1012.96 1013.47 1014.03 1014.59 1015.12 1015.59 1015.99 1016.32 1016.60 1016.83 1017.04 1017.21 1017.33 1017.39 1017.37 1017.25 1017.06 1016.82 1016.55 1016.31 1016.11 1015.98 1015.91 1015.87 1015.84 1015.78 1015.69 1015.58 1015.45 1015.34 1015.28 1015.27 1015.28 1015.28 1015.21 1015.01 1014.67 1014.19
1012.06 1012.12 1012.27 1012.52 1012.88 1013.34 1013.87 1014.44 1015.00 1015.53 1016.01 1016.43 1016.80 1017.12 1017.40 1017.64 1017.83 1017.94 1017.96 1017.88 1017.70 1017.43 1017.11 1016.79 1016.50 1016.28 1016.14 1016.05 1016.00 1015.95 1015.88 1015.77 1015.62 1015.48 1015.36 1015.30 1015.30 1015.34 1015.37 1015.33 1015.17 1014.85 1014.40
1012.31 1012.40 1012.58 1012.87 1013.26 1013.73 1014.26 1014.80 1015.33 1015.82 1016.27 1016.68 1017.05 1017.39 1017.70 1017.97 1018.18 1018.30 1018.30 1018.19 1017.97 1017.66 1017.30 1016.95 1016.66 1016.44 1016.30 1016.23 1016.18 1016.14 1016.05 1015.92 1015.75 1015.58 1015.44 1015.36 1015.36 1015.40 1015.45 1015.45 1015.32 1015.05 1014.63
1012.62 1012.74 1012.95 1013.27 1013.67 1014.13 1014.62 1015.10 1015.56 1015.99 1016.37 1016.74 1017.08 1017.42 1017.74 1018.03 1018.26 1018.38 1018.39 1018.28 1018.04 1017.72 1017.37 1017.03 1016.75 1016.56 1016.46 1016.42 1016.41 1016.38 1016.30 1016.16 1015.97 1015.78 1015.61 1015.50 1015.48 1015.52 1015.58 1015.60 1015.52 1015.29 1014.91
1012.96 1013.11 1013.36 1013.70 1014.10 1014.53 1014.96 1015.36 1015.73 1016.05 1016.34 1016.63 1016.92 1017.23 1017.54 1017.84 1018.08 1018.22 1018.25 1018.14 1017.92 1017.62 1017.29 1016.99 1016.75 1016.62 1016.57 1016.59 1016.62 1016.64 1016.58 1016.46 1016.27 1016.05 1015.86 1015.73 1015.68 1015.71 1015.77 1015.81 1015.77 1015.59 1015.26
1013.29 1013.48 1013.76 1014.11 1014.50 1014.89 1015.25 1015.56 1015.82 1016.03 1016.21 1016.41 1016.63 1016.89 1017.18 1017.46 1017.70 1017.86 1017.91 1017.83 1017.63 1017.37 1017.08 1016.82 1016.65 1016.57 1016.60 1016.68 1016.78 1016.85 1016.85 1016.76 1016.58 1016.37 1016.17 1016.02 1015.95 1015.97 1016.03 1016.08 1016.07 1015.94 1015.66
1013.55 1013.76 1014.06 1014.42 1014.79 1015.15 1015.44 1015.67 1015.82 1015.93 1016.01 1016.11 1016.26 1016.46 1016.71 1016.98 1017.21 1017.38 1017.43 1017.38 1017.22 1016.99 1016.75 1016.54 1016.43 1016.42 1016.51 1016.66 1016.83 1016.97 1017.03 1016.99 1016.86 1016.67 1016.48 1016.33 1016.25 1016.25 1016.31 1016.38 1016.40 1016.32 1016.10
1013.64 1013.89 1014.20 1014.56 1014.92 1015.24 1015.49 1015.65 1015.73 1015.75 1015.76 1015.78 1015.86 1016.01 1016.21 1016.45 1016.67 1016.83 1016.89 1016.86 1016.72 1016.53 1016.33 1016.18 1016.11 1016.15 1016.30 1016.51 1016.74 1016.94 1017.07 1017.10 1017.02 1016.88 1016.72 1016.59 1016.52 1016.52 1016.58 1016.67 1016.72 1016.69 1016.53
1013.54 1013.79 1014.11 1014.48 1014.83 1015.13 1015.35 1015.48 1015.52 1015.49 1015.45 1015.42 1015.46 1015.56 1015.72 1015.92 1016.12 1016.26 1016.33 1016.31 1016.20 1016.05 1015.88 1015.76 1015.73 1015.81 1015.99 1016.25 1016.53 1016.78 1016.97 1017.06 1017.06 1016.98 1016.87 1016.77 1016.72 1016.73 1016.80 1016.90 1016.98 1017.00 1016.91
1013.21 1013.47 1013.79 1014.14 1014.49 1014.79 1015.01 1015.14 1015.17 1015.14 1015.08 1015.04 1015.04 1015.11 1015.24 1015.41 1015.58 1015.72 1015.78 1015.78 1015.69 1015.57 1015.44 1015.35 1015.35 1015.45 1015.64 1015.92 1016.22 1016.51 1016.75 1016.90 1016.97 1016.96 1016.91 1016.85 1016.83 1016.86 1016.95 1017.06 1017.16 1017.22 1017.20
1012.73 1012.95 1013.26 1013.60 1013.94 1014.25 1014.48 1014.63 1014.69 1014.68 1014.64 1014.60 1014.60 1014.65 1014.76 1014.90 1015.05 1015.17 1015.24 1015.25 1015.20 1015.12 1015.03 1014.98 1015.00 1015.11 1015.31 1015.58 1015.89 1016.19 1016.46 1016.66 1016.78 1016.83 1016.84 1016.84 1016.86 1016.91 1017.01 1017.13 1017.25 1017.35 1017.38
1012.16 1012.34 1012.60 1012.92 1013.25 1013.56 1013.82 1013.99 1014.10 1014.13 1014.12 1014.11 1014.11 1014.15 1014.23 1014.35 1014.48 1014.60 1014.68 1014.72 1014.72 1014.69 1014.65 1014.65 1014.70 1014.82 1015.02 1015.28 1015.58 1015.87 1016.15 1016.37 1016.54 1016.64 1016.71 1016.76 1016.82 1016.90 1017.00 1017.13 1017.26 1017.37 1017.46
1011.62 1011.74 1011.94 1012.21 1012.51 1012.81 1013.08 1013.29 1013.43 1013.50 1013.52 1013.53 1013.53 1013.56 1013.62 1013.71 1013.83 1013.94 1014.05 1014.13 1014.19 1014.23 1014.26 1014.32 1014.42 1014.57 1014.77 1015.02 1015.30 1015.58 1015.84 1016.07 1016.26 1016.41 1016.53 1016.62 1016.72 1016.82 1016.93 1017.06 1017.19 1017.31 1017.42
1011.22 1011.25 1011.38 1011.58 1011.83 1012.10 1012.35 1012.57 1012.72 1012.82 1012.86 1012.87 1012.86 1012.87 1012.90 1012.96 1013.05 1013.17 1013.29 1013.42 1013.55 1013.68 1013.81 1013.95 1014.11 1014.30 1014.52 1014.76 1015.02 1015.28 1015.53 1015.76 1015.96 1016.14 1016.29 1016.42 1016.55 1016.67 1016.80 1016.92 1017.05 1017.17 1017.28
1011.01 1010.95 1010.98 1011.10 1011.28 1011.49 1011.70 1011.89 1012.03 1012.11 1012.14 1012.14 1012.10 1012.07 1012.06 1012.08 1012.14 1012.25 1012.39 1012.57 1012.76 1012.98 1013.20 1013.44 1013.68 1013.92 1014.17 1014.42 1014.67 1014.92 1015.15 1015.38 1015.59 1015.78 1015.97 1016.14 1016.30 1016.44 1016.58 1016.71 1016.82 1016.94 1017.05
1011.00 1010.85 1010.79 1010.81 1010.89 1011.02 1011.16 1011.29 1011.38 1011.43 1011.42 1011.37 1011.29 1011.20 1011.13 1011.10 1011.12 1011.20 1011.35 1011.55 1011.81 1012.10 1012.41 1012.73 1013.05 1013.36 1013.66 1013.93 1014.19 1014.43 1014.66 1014.87 1015.09 1015.30 1015.51 1015.71 1015.90 1016.08 1016.24 1016.38 1016.50 1016.61 1016.72
1011.16 1010.93 1010.77 1010.69 1010.67 1010.69 1010.74 1010.79 1010.81 1010.79 1010.72 1010.60 1010.46 1010.31 1010.18 1010.08 1010.05 1010.09 1010.22 1010.42 1010.70 1011.04 1011.42 1011.81 1012.20 1012.57 1012.91 1013.22 1013.49 1013.74 1013.97 1014.19 1014.42 1014.64 1014.88 1015.11 1015.33 1015.54 1015.73 1015.89 1016.02 1016.15 1016.27
1011.43 1011.13 1010.88 1010.70 1010.57 1010.49 1010.43 1010.38 1010.31 1010.21 1010.07 1009.90 1009.69 1009.48 1009.28 1009.11 1009.01 1009.00 1009.08 1009.26 1009.53 1009.88 1010.28 1010.70 1011.14 1011.55 1011.93 1012.27 1012.57 1012.84 1013.08 1013.31 1013.55 1013.79 1014.04 1014.30 1014.55 1014.80 1015.02 1015.22 1015.39 1015.54 1015.70
1011.72 1011.37 1011.05 1010.78 1010.56 1010.37 1010.21 1010.06 1009.90 1009.73 1009.53 1009.30 1009.04 1008.77 1008.51 1008.29 1008.12 1008.03 1008.04 1008.16 1008.37 1008.68 1009.06 1009.48 1009.92 1010.36 1010.76 1011.13 1011.46 1011.75 1012.01 1012.26 1012.50 1012.76 1013.02 1013.30 1013.58 1013.86 1014.12 1014.36 1014.58 1014.79 1014.99
1011.96 1011.58 1011.22 1010.88 1010.57 1010.29 1010.04 1009.81 1009.58 1009.35 1009.10 1008.83 1008.54 1008.24 1007.94 1007.66 1007.43 1007.26 1007.19 1007.21 1007.33 1007.56 1007.87 1008.24 1008.65 1009.07 1009.48 1009.86 1010.21 1010.53 1010.81 1011.08 1011.34 1011.61 1011.88 1012.17 1012.46 1012.76 1013.06 1013.34 1013.62 1013.89 1014.16
1012.12 1011.73 1011.33 1010.94 1010.57 1010.23 1009.91 1009.61 1009.33 1009.06 1008.78 1008.50 1008.20 1007.89 1007.57 1007.26 1006.97 1006.72 1006.54 1006.46 1006.46 1006.57 1006.77 1007.06 1007.40 1007.78 1008.18 1008.57 1008.93 1009.27 1009.58 1009.87 1010.14 1010.42 1010.69 1010.97 1011.27 1011.58 1011.89 1012.22 1012.54 1012.88 1013.22
1012.19 1011.79 1011.38 1010.97 1010.56 1010.16 1009.79 1009.45 1009.13 1008.83 1008.55 1008.27 1007.98 1007.68 1007.35 1007.02 1006.68 1006.36 1006.09 1005.88 1005.76 1005.73 1005.80 1005.98 1006.23 1006.56 1006.92 1007.30 1007.68 1008.04 1008.38 1008.69 1008.98 1009.25 1009.52 1009.79 1010.07 1010.38 1010.69 1011.04 1011.40 1011.78 1012.19
Thickness
5728 5727 5726 5724 5723 5723 5722 5721 5721 5720 5720 5719 5718 5718 5717 5716 5715 5714 5713 5713 5714 5714 5714 5714 5714 5714 5714 5714 5715 5715 5715 5715 5715 5715 5716 5716 5717 5718 5718 5719 5719 5720 5721
5727 5725 5724 5722 5721 5720 5718 5717 5717 5716 5714 5713 5713 5712 5712 5712 5711 5710 5708 5708 5708 5708 5708 5709 5709 5709 5709 5710 5710 5710 5710 5711 5711 5711 5711 5712 5713 5713 5714 5715 5715 5716 5716
5725 5723 5721 5719 5718 5717 5716 5714 5713 5711 5710 5709 5707 5707 5707 5706 5706 5705 5704 5703 5703 5703 5703 5703 5703 5704 5704 5705 5705 5705 5706 5706 5707 5707 5707 5708 5708 5709 5710 5710 5711 5711 5712
5723 5720 5718 5717 5716 5714 5713 5711 5708 5706 5705 5703 5702 5702 5702 5701 5701 5701 5700 5699 5699 5698 5697 5698 5698 5699 5699 5700 5700 5700 5700 5701 5702 5702 5703 5703 5703 5704 5705 5706 5706 5706 5707
5720 5718 5716 5715 5714 5712 5710 5708 5705 5703 5700 5699 5698 5697 5697 5697 5696 5696 5696 5695 5694 5694 5693 5693 5693 5693 5694 5694 5694 5695 5695 5696 5696 5697 5697 5698 5698 5699 5700 5700 5701 5701 5702
5716 5715 5714 5712 5711 5708 5706 5704 5702 5701 5698 5697 5696 5694 5693 5692 5692 5691 5691 5691 5690 5689 5689 5688 5688 5688 5688 5689 5690 5690 5691 5691 5692 5692 5692 5692 5692 5693 5693 5694 5695 5695 5696
5714 5713 5711 5709 5707 5704 5702 5701 5699 5697 5695 5694 5691 5687 5687 5689 5687 5687 5686 5686 5685 5685 5685 5684 5684 5684 5683 5684 5685 5686 5686 5686 5687 5687 5687 5686 5686 5687 5688 5689 5689 5690 5690
5712 5711 5709 5706 5705 5702 5699 5698 5696 5693 5692 5693 5688 5683 5678 5678 5680 5683 5682 5681 5681 5681 5680 5680 5680 5679 5679 5678 5679 5680 5680 5680 5681 5681 5681 5681 5681 5681 5682 5683 5683 5684 5684
5709 5708 5706 5705 5703 5700 5697 5696 5694 5691 5688 5689 5689 5683 5675 5670 5672 5675 5677 5677 5676 5676 5675 5675 5674 5674 5673 5672 5672 5673 5674 5674 5674 5675 5675 5675 5675 5676 5676 5677 5678 5678 5678
5707 5706 5704 5702 5700 5699 5696 5695 5693 5691 5688 5684 5685 5685 5682 5678 5670 5666 5669 5672 5672 5671 5671 5670 5669 5668 5667 5666 5666 5666 5667 5667 5667 5668 5668 5669 5669 5670 5670 5671 5672 5672 5673
5704 5703 5702 5700 5699 5697 5695 5694 5691 5690 5687 5684 5681 5680 5679 5677 5675 5667 5661 5663 5665 5666 5667 5666 5664 5663 5661 5661 5660 5660 5660 5660 5660 5661 5661 5662 5662 5663 5664 5664 5665 5666 5666
5701 5701 5700 5698 5697 5695 5694 5692 5690 5688 5686 5684 5682 5680 5677 5673 5670 5667 5661 5659 5658 5660 5662 5662 5660 5658 5657 5656 5655 5654 5654 5654 5654 5654 5654 5655 5656 5656 5657 5658 5659 5659 5660
5697 5697 5697 5696 5694 5693 5692 5690 5688 5686 5684 5682 5680 5678 5677 5675 5673 5669 5663 5659 5657 5657 5657 5657 5656 5655 5652 5651 5650 5649 5649 5649 5649 5648 5648 5649 5649 5649 5650 5651 5652 5653 5653
5696 5696 5695 5693 5692 5691 5690 5688 5686 5684 5683 5680 5679 5677 5675 5673 5672 5668 5663 5658 5653 5652 5652 5651 5652 5650 5648 5647 5645 5644 5644 5644 5643 5643 5643 5643 5643 5643 5643 5644 5645 5646 5647
5696 5695 5693 5691 5690 5688 5687 5685 5682 5681 5680 5678 5676 5675 5673 5671 5670 5667 5665 5661 5654 5646 5645 5647 5647 5646 5645 5643 5641 5640 5640 5639 5639 5638 5638 5637 5638 5637 5637 5638 5639 5640 5640
5694 5693 5691 5689 5687 5685 5684 5681 5679 5678 5676 5674 5673 5671 5670 5668 5667 5665 5662 5660 5657 5651 5644 5645 5645 5644 5642 5640 5638 5637 5636 5635 5635 5634 5634 5633 5633 5633 5633 5633 5633 5634 5634
5692 5690 5688 5686 5684 5682 5680 5678 5676 5674 5672 5670 5670 5668 5666 5666 5663 5661 5659 5657 5654 5651 5644 5642 5643 5642 5639 5637 5634 5633 5632 5631 5631 5630 5630 5629 5629 5629 5628 5628 5628 5629 5629
5690 5688 5685 5683 5681 5679 5677 5675 5672 5670 5668 5666 5666 5665 5663 5663 5661 5659 5656 5653 5650 5648 5643 5638 5638 5637 5635 5634 5632 5630 5629 5627 5627 5626 5626 5625 5625 5624 5624 5623 5623 5623 5623
5686 5684 5682 5679 5677 5675 5673 5672 5670 5667 5666 5664 5663 5661 5660 5659 5657 5655 5653 5650 5647 5646 5642 5637 5634 5633 5632 5630 5628 5627 5625 5624 5623 5622 5621 5620 5620 5619 5619 5618 5618 5617 5617
5681 5679 5678 5676 5674 5672 5670 5668 5666 5664 5662 5661 5660 5659 5658 5656 5654 5653 5650 5647 5645 5641 5638 5634 5631 5629 5627 5626 5624 5621 5619 5619 5619 5619 5617 5615 5615 5614 5614 5613 5612 5611 5611
5677 5675 5673 5671 5669 5667 5665 5663 5661 5660 5657 5656 5655 5654 5654 5653 5652 5650 5648 5644 5641 5637 5634 5630 5627 5625 5622 5620 5619 5618 5615 5614 5614 5614 5612 5610 5610 5609 5608 5607 5606 5606 5605
5671 5669 5667 5664 5662 5661 5660 5658 5655 5653 5652 5650 5649 5648 5648 5647 5647 5645 5644 5641 5639 5635 5630 5627 5624 5621 5620 5619 5617 5615 5612 5609 5606 5609 5607 5605 5605 5603 5603 5602 5601 5600 5599
5666 5663 5661 5658 5656 5654 5653 5652 5650 5647 5646 5645 5644 5643 5643 5643 5641 5639 5638 5636 5634 5632 5630 5627 5622 5620 5619 5618 5615 5611 5609 5606 5604 5605 5602 5599 5599 5598 5598 5597 5595 5594 5593
5660 5658 5656 5653 5651 5649 5648 5646 5643 5641 5640 5639 5639 5638 5637 5635 5635 5634 5632 5629 5627 5627 5626 5624 5622 5620 5619 5617 5614 5610 5607 5604 5602 5601 5599 5594 5594 5593 5594 5592 5591 5589 5588
5655 5653 5651 5649 5646 5644 5642 5640 5637 5634 5632 5632 5633 5633 5631 5630 5630 5628 5625 5623 5621 5620 5621 5620 5618 5616 5614 5612 5610 5605 5601 5597 5593 5594 5595 5591 5589 5588 5588 5586 5585 5584 5583
5651 5649 5647 5644 5642 5639 5637 5635 5632 5629 5626 5626 5626 5626 5625 5624 5623 5622 5619 5617 5614 5614 5614 5613 5611 5610 5608 5606 5604 5601 5598 5593 5589 5587 5590 5587 5584 5582 5580 5581 5580 5578 5577